(°C)
16°
16°
16°
16°
15°
15°
15°
(°C)
12°
12°
12°
12°
11°
11°
10°
G
G
G
G
G
G
G
(km/saat)
15-23
17-26
18-29
19-32
20-33
20-34
20-34
(mm)
0
0
0
0
0
0
0
(%)
0
0
0
0
0
0
0

Güneşin açısı

/ 53°
sun-icon
UV 8
05:11
20:05
Hilal Şişkin (315°)
03:22
16:25

Barnstable (KHYA) için METAR

Zaman Koşullar Sıcaklık/
Çiy noktası
Rüzgar Görünürlük Hava Bulutlar Basınç Değiştir Ham
VFR 15°C / 9.4°C 190º 7kt >10km - Clear 1028 - KHYA 261356Z 19007KT 10SM CLR 15/09 A3036 RMK AO2 SLP282 T01500094
VFR 14.4°C / 6.7°C 140º 8kt >10km - Clear 1028 - KHYA 261256Z 14008KT 10SM CLR 14/07 A3036 RMK AO2 SLP281 T01440067
VFR 13.9°C / 8.3°C variable 4kt >10km - Clear 1028 - KHYA 261156Z VRB04KT 10SM CLR 14/08 A3037 RMK AO2 SLP284 T01390083 10139 20061 53004
VFR 12.8°C / 8.3°C 150º 4kt >10km - Clear 1028 - KHYA 261056Z 15004KT 10SM CLR 13/08 A3036 RMK AO2 SLP281 T01280083
VFR 7.2°C / 5.6°C variable 0kt >10km - Clear 1028 - KHYA 260956Z 00000KT 10SM CLR 07/06 A3036 RMK AO2 SLP280 T00720056
VFR 6.7°C / 4.4°C variable 0kt >10km - Clear 1028 - KHYA 260856Z AUTO 00000KT 10SM CLR 07/04 A3035 RMK AO2 SLP280 T00670044 55002
VFR 7.2°C / 5°C variable 0kt >10km - Clear 1027 - KHYA 260756Z AUTO 00000KT 10SM CLR 07/05 A3035 RMK AO2 SLP278 T00720050
VFR 10°C / 5°C variable 0kt >10km - Clear 1027 - KHYA 260656Z AUTO 00000KT 10SM CLR 10/05 A3035 RMK AO2 SLP279 T01000050
VFR 11.1°C / 6.1°C variable 0kt >10km - Clear 1028 - KHYA 260556Z AUTO 00000KT 10SM CLR 11/06 A3036 RMK AO2 SLP282 T01110061 10122 20111 58001
VFR 11.7°C / 5.6°C 200º 5kt >10km - Clear 1028 - KHYA 260456Z AUTO 20005KT 10SM CLR 12/06 A3037 RMK AO2 SLP286 T01170056 401610050
VFR 11.7°C / 5.6°C 200º 5kt >10km - Clear 1028 - KHYA 260356Z AUTO 20005KT 10SM CLR 12/06 A3037 RMK AO2 SLP285 T01170056
VFR 11.7°C / 5.6°C 170º 5kt >10km - Clear 1028 - KHYA 260256Z AUTO 17005KT 10SM CLR 12/06 A3037 RMK AO2 SLP284 T01170056 50003
VFR 11.7°C / 5.6°C 200º 4kt >10km - Clear 1028 - KHYA 260156Z 20004KT 10SM CLR 12/06 A3038 RMK AO2 SLP288 T01170056
VFR 12.2°C / 6.7°C 170º 6kt >10km - Clear 1028 - KHYA 260056Z 17006KT 10SM CLR 12/07 A3037 RMK AO2 SLP284 T01220067
VFR 12.2°C / 6.1°C 180º 5kt >10km - Clear 1028 - KHYA 252356Z 18005KT 10SM CLR 12/06 A3036 RMK AO2 SLP280 T01220061 10161 20122 56008
VFR 13.3°C / 6.1°C 180º 6kt >10km - Clear 1028 - KHYA 252256Z 18006KT 10SM CLR 13/06 A3036 RMK AO2 SLP283 T01330061
VFR 13.9°C / 6.1°C variable 6kt >10km - Clear 1028 - KHYA 252156Z VRB06KT 10SM CLR 14/06 A3037 RMK AO2 SLP285 T01390061
VFR 14.4°C / 5°C 190º 7kt >10km - Clear 1028 - KHYA 252056Z 19007KT 10SM CLR 14/05 A3038 RMK AO2 SLP289 T01440050 55005
VFR 15°C / 5°C 140º 6kt >10km - Clear 1028 - KHYA 251956Z 14006KT 10SM CLR 15/05 A3038 RMK AO2 SLP288 T01500050
VFR 15°C / 3.9°C 180º 7kt >10km - Clear 1029 - KHYA 251856Z 18007KT 10SM CLR 15/04 A3039 RMK AO2 SLP292 T01500039
VFR 15°C / 3.3°C 180º 6kt >10km - Clear 1029 - KHYA 251756Z 18006KT 10SM CLR 15/03 A3040 RMK AO2 SLP294 T01500033 10161 20139 58002
VFR 15°C / 3.3°C variable 6kt >10km - Clear 1029 - KHYA 251656Z VRB06KT 10SM CLR 15/03 A3040 RMK AO2 SLP296 T01500033
VFR 15°C / 5.6°C variable 6kt >10km - Clear 1029 - KHYA 251556Z VRB06KT 10SM CLR 15/06 A3041 RMK AO2 SLP299 T01500056
VFR 15°C / 3.9°C 120º 7kt >10km - Clear 1029 - KHYA 251456Z 12007KT 10SM CLR 15/04 A3040 RMK AO2 SLP296 T01500039 50005

VFR

15°C / 9.4°C

[Daha fazla]
Rüzgar 190º 7kt
Görünürlük >10km
Hava -
Bulutlar Clear
Basınç 1028
Değiştir -
Ham KHYA 261356Z 19007KT 10SM CLR 15/09 A3036 RMK AO2 SLP282 T01500094

VFR

14.4°C / 6.7°C

[Daha fazla]
Rüzgar 140º 8kt
Görünürlük >10km
Hava -
Bulutlar Clear
Basınç 1028
Değiştir -
Ham KHYA 261256Z 14008KT 10SM CLR 14/07 A3036 RMK AO2 SLP281 T01440067

VFR

13.9°C / 8.3°C

[Daha fazla]
Rüzgar variable 4kt
Görünürlük >10km
Hava -
Bulutlar Clear
Basınç 1028
Değiştir -
Ham KHYA 261156Z VRB04KT 10SM CLR 14/08 A3037 RMK AO2 SLP284 T01390083 10139 20061 53004

VFR

12.8°C / 8.3°C

[Daha fazla]
Rüzgar 150º 4kt
Görünürlük >10km
Hava -
Bulutlar Clear
Basınç 1028
Değiştir -
Ham KHYA 261056Z 15004KT 10SM CLR 13/08 A3036 RMK AO2 SLP281 T01280083

VFR

7.2°C / 5.6°C

[Daha fazla]
Rüzgar variable 0kt
Görünürlük >10km
Hava -
Bulutlar Clear
Basınç 1028
Değiştir -
Ham KHYA 260956Z 00000KT 10SM CLR 07/06 A3036 RMK AO2 SLP280 T00720056

VFR

6.7°C / 4.4°C

[Daha fazla]
Rüzgar variable 0kt
Görünürlük >10km
Hava -
Bulutlar Clear
Basınç 1028
Değiştir -
Ham KHYA 260856Z AUTO 00000KT 10SM CLR 07/04 A3035 RMK AO2 SLP280 T00670044 55002

VFR

7.2°C / 5°C

[Daha fazla]
Rüzgar variable 0kt
Görünürlük >10km
Hava -
Bulutlar Clear
Basınç 1027
Değiştir -
Ham KHYA 260756Z AUTO 00000KT 10SM CLR 07/05 A3035 RMK AO2 SLP278 T00720050

VFR

10°C / 5°C

[Daha fazla]
Rüzgar variable 0kt
Görünürlük >10km
Hava -
Bulutlar Clear
Basınç 1027
Değiştir -
Ham KHYA 260656Z AUTO 00000KT 10SM CLR 10/05 A3035 RMK AO2 SLP279 T01000050

VFR

11.1°C / 6.1°C

[Daha fazla]
Rüzgar variable 0kt
Görünürlük >10km
Hava -
Bulutlar Clear
Basınç 1028
Değiştir -
Ham KHYA 260556Z AUTO 00000KT 10SM CLR 11/06 A3036 RMK AO2 SLP282 T01110061 10122 20111 58001

VFR

11.7°C / 5.6°C

[Daha fazla]
Rüzgar 200º 5kt
Görünürlük >10km
Hava -
Bulutlar Clear
Basınç 1028
Değiştir -
Ham KHYA 260456Z AUTO 20005KT 10SM CLR 12/06 A3037 RMK AO2 SLP286 T01170056 401610050

VFR

11.7°C / 5.6°C

[Daha fazla]
Rüzgar 200º 5kt
Görünürlük >10km
Hava -
Bulutlar Clear
Basınç 1028
Değiştir -
Ham KHYA 260356Z AUTO 20005KT 10SM CLR 12/06 A3037 RMK AO2 SLP285 T01170056

VFR

11.7°C / 5.6°C

[Daha fazla]
Rüzgar 170º 5kt
Görünürlük >10km
Hava -
Bulutlar Clear
Basınç 1028
Değiştir -
Ham KHYA 260256Z AUTO 17005KT 10SM CLR 12/06 A3037 RMK AO2 SLP284 T01170056 50003

VFR

11.7°C / 5.6°C

[Daha fazla]
Rüzgar 200º 4kt
Görünürlük >10km
Hava -
Bulutlar Clear
Basınç 1028
Değiştir -
Ham KHYA 260156Z 20004KT 10SM CLR 12/06 A3038 RMK AO2 SLP288 T01170056

VFR

12.2°C / 6.7°C

[Daha fazla]
Rüzgar 170º 6kt
Görünürlük >10km
Hava -
Bulutlar Clear
Basınç 1028
Değiştir -
Ham KHYA 260056Z 17006KT 10SM CLR 12/07 A3037 RMK AO2 SLP284 T01220067

VFR

12.2°C / 6.1°C

[Daha fazla]
Rüzgar 180º 5kt
Görünürlük >10km
Hava -
Bulutlar Clear
Basınç 1028
Değiştir -
Ham KHYA 252356Z 18005KT 10SM CLR 12/06 A3036 RMK AO2 SLP280 T01220061 10161 20122 56008

VFR

13.3°C / 6.1°C

[Daha fazla]
Rüzgar 180º 6kt
Görünürlük >10km
Hava -
Bulutlar Clear
Basınç 1028
Değiştir -
Ham KHYA 252256Z 18006KT 10SM CLR 13/06 A3036 RMK AO2 SLP283 T01330061

VFR

13.9°C / 6.1°C

[Daha fazla]
Rüzgar variable 6kt
Görünürlük >10km
Hava -
Bulutlar Clear
Basınç 1028
Değiştir -
Ham KHYA 252156Z VRB06KT 10SM CLR 14/06 A3037 RMK AO2 SLP285 T01390061

VFR

14.4°C / 5°C

[Daha fazla]
Rüzgar 190º 7kt
Görünürlük >10km
Hava -
Bulutlar Clear
Basınç 1028
Değiştir -
Ham KHYA 252056Z 19007KT 10SM CLR 14/05 A3038 RMK AO2 SLP289 T01440050 55005

VFR

15°C / 5°C

[Daha fazla]
Rüzgar 140º 6kt
Görünürlük >10km
Hava -
Bulutlar Clear
Basınç 1028
Değiştir -
Ham KHYA 251956Z 14006KT 10SM CLR 15/05 A3038 RMK AO2 SLP288 T01500050

VFR

15°C / 3.9°C

[Daha fazla]
Rüzgar 180º 7kt
Görünürlük >10km
Hava -
Bulutlar Clear
Basınç 1029
Değiştir -
Ham KHYA 251856Z 18007KT 10SM CLR 15/04 A3039 RMK AO2 SLP292 T01500039

VFR

15°C / 3.3°C

[Daha fazla]
Rüzgar 180º 6kt
Görünürlük >10km
Hava -
Bulutlar Clear
Basınç 1029
Değiştir -
Ham KHYA 251756Z 18006KT 10SM CLR 15/03 A3040 RMK AO2 SLP294 T01500033 10161 20139 58002

VFR

15°C / 3.3°C

[Daha fazla]
Rüzgar variable 6kt
Görünürlük >10km
Hava -
Bulutlar Clear
Basınç 1029
Değiştir -
Ham KHYA 251656Z VRB06KT 10SM CLR 15/03 A3040 RMK AO2 SLP296 T01500033

VFR

15°C / 5.6°C

[Daha fazla]
Rüzgar variable 6kt
Görünürlük >10km
Hava -
Bulutlar Clear
Basınç 1029
Değiştir -
Ham KHYA 251556Z VRB06KT 10SM CLR 15/06 A3041 RMK AO2 SLP299 T01500056

VFR

15°C / 3.9°C

[Daha fazla]
Rüzgar 120º 7kt
Görünürlük >10km
Hava -
Bulutlar Clear
Basınç 1029
Değiştir -
Ham KHYA 251456Z 12007KT 10SM CLR 15/04 A3040 RMK AO2 SLP296 T01500039 50005

Barnstable (KHYA) için TAF

From till


From till Wind 160º 7kt. Visibility 10km or more. Broken Clouds 15000ft.
From till Wind 180º 10kt. Gust 19kt. Visibility 10km or more. Scattered Clouds 10000ft.
From till Wind 200º 10kt. Visibility 10km or more. Broken Clouds 5000ft.
From till Wind 200º 10kt. Visibility 10km or more. Broken Clouds 2000ft.
From till Wind 200º 12kt. Visibility 6400m. Mist . Scattered Clouds 300ft. Overcast 800ft.

Ham: KHYA 261123Z 2612/2712 16007KT P6SM BKN150 FM261800 18010G19KT P6SM SCT100 FM270100 20010KT P6SM BKN050 FM270400 20010KT P6SM BKN020 FM270900 20012KT 4SM BR SCT003 OVC008

Barnstable için radar ve yağış nowcast

Çise
Hafif
Orta
Ağır
Çok ağır
Dolu

Konum işaretleyicisi Barnstable üzerine yerleştirilir. Bu animasyon son saat içerisindeki yağış radarını ve 1h tahminini gösterir. Hafif yağmur veya kar yağışı radar için görünmez olabilir. Yağış şiddeti açık mavi ile koyu mor arasındaki renklerle kodlanmıştır.

Barnstable için şu anki uydu görüntüleri, ABD

Konum işaretleyici Barnstable üzerine yerleştirilir. [Daha fazla]

Gerçek zamanlı uydu görüntüsü gündüz süresince görülür ışığı gece süresince kızılötesi ışınım ile birleştirir. Gece kızılötesi ışınım sıcaklık farklarını algılayabildiğinden dolayı görüntü karanlık değildir. Ancak düşük bulutları ve sisi yer sıcaklığından ayırmak zordur ve bu nedenle gece boyunca neredeyse görünmez olabilirler. Avrupa için Meteosat uydu görüntüleri gerçek zamanlı olarak her 5 dakikada bir güncellenir. GOES-16/GOES-17 (Kuzey ve Güney Amerika) ve Himawari (Asya) görüntüleri her 10 dakikada bir güncellenir.

En başa git